TimeCST,TemperatureF,Dew PointF,Humidity,Sea Level PressureIn,VisibilityMPH,Wind Direction,Wind SpeedMPH,Gust SpeedMPH,PrecipitationIn,Events,Conditions,WindDirDegrees,DateUTC
12:53 AM,50.0,46.0,86,30.29,9.0,WNW,5.8,-,N/A,,Scattered Clouds,290,2013-01-07 06:53:00
1:53 AM,48.9,45.0,86,30.26,8.0,NNW,4.6,-,N/A,,Mostly Cloudy,330,2013-01-07 07:53:00
2:53 AM,50.0,46.0,86,30.24,8.0,NNW,4.6,-,N/A,,Mostly Cloudy,330,2013-01-07 08:53:00
3:53 AM,50.0,46.0,86,30.23,8.0,NNW,9.2,-,N/A,,Scattered Clouds,330,2013-01-07 09:53:00
4:53 AM,48.9,45.0,86,30.22,8.0,NW,6.9,-,N/A,,Mostly Cloudy,320,2013-01-07 10:53:00
5:53 AM,48.0,44.1,86,30.21,8.0,WNW,5.8,-,N/A,,Clear,300,2013-01-07 11:53:00
6:53 AM,46.9,43.0,86,30.20,8.0,NNW,4.6,-,N/A,,Clear,340,2013-01-07 12:53:00
7:53 AM,48.0,44.1,86,30.21,6.0,NNW,5.8,-,N/A,,Clear,340,2013-01-07 13:53:00
8:53 AM,55.9,51.1,84,30.22,7.0,North,5.8,-,N/A,,Partly Cloudy,350,2013-01-07 14:53:00
9:53 AM,63.0,52.0,67,30.22,8.0,North,10.4,-,N/A,,Clear,10,2013-01-07 15:53:00
10:53 AM,66.0,52.0,60,30.22,9.0,NNE,6.9,-,N/A,,Scattered Clouds,20,2013-01-07 16:53:00
11:53 AM,69.1,51.1,53,30.17,9.0,NNE,9.2,-,N/A,,Scattered Clouds,20,2013-01-07 17:53:00
1:53 PM,68.0,53.1,59,30.09,9.0,ENE,10.4,-,N/A,,Partly Cloudy,60,2013-01-07 19:53:00
2:53 PM,66.0,53.1,63,30.08,9.0,NNE,4.6,-,N/A,,Overcast,30,2013-01-07 20:53:00
3:53 PM,66.9,55.0,66,30.06,9.0,NE,8.1,-,N/A,,Overcast,50,2013-01-07 21:53:00
5:53 PM,64.9,57.0,75,30.05,10.0,NNE,4.6,-,N/A,,Overcast,30,2013-01-07 23:53:00
6:53 PM,64.0,57.9,80,30.03,10.0,NE,5.8,-,N/A,,Overcast,50,2013-01-08 00:53:00
7:53 PM,64.9,59.0,81,30.04,10.0,NE,4.6,-,N/A,,Overcast,40,2013-01-08 01:53:00
8:53 PM,64.9,60.1,84,30.04,10.0,North,4.6,-,N/A,,Overcast,10,2013-01-08 02:53:00
9:08 PM,64.4,60.8,88,30.04,9.0,NNW,4.6,-,N/A,,Overcast,330,2013-01-08 03:08:00
9:45 PM,64.4,60.8,88,30.02,8.0,NE,4.6,-,0.00,,Overcast,40,2013-01-08 03:45:00
9:53 PM,64.0,60.1,87,30.02,7.0,NE,3.5,-,0.00,,Overcast,50,2013-01-08 03:53:00
10:53 PM,64.0,60.1,87,30.01,8.0,NE,3.5,-,N/A,,Overcast,40,2013-01-08 04:53:00
11:53 PM,64.0,61.0,90,29.99,9.0,Calm,Calm,-,0.00,,Overcast,0,2013-01-08 05:53:00